Denver, CO

4:14 AM MST on December 14, 2019 (GMT -0700)
Front Range

Weather History for KFTG - November, 2019

Change the Weather History Date:

Friday, November 15, 2019

  Actual Average (WUND) Record (WUND)
Temperature  
Mean Temperature 48 °F -  
Max Temperature 64 °F - - (-1)
Min Temperature 32 °F - - (-1)
Degree Days  
Heating Degree Days 17    
Moisture  
Dew Point 27 °F    
Average Humidity 52    
Maximum Humidity 81    
Minimum Humidity 24    
Precipitation  
Precipitation 0.00 in - - ()
Sea Level Pressure  
Sea Level Pressure 30.13 in    
Wind  
Wind Speed 5 mph (SSW)    
Max Wind Speed 12 mph    
Max Gust Speed -    
Visibility 10 miles    
Events      
Averages and records for this station are not official NWS values.
T = Trace of Precipitation, MM = Missing Value Source: NWS Daily Summary

Daily Weather History Graph

Daily Weather History Graph

Search for Another Location

Airport or City:

Astronomy

Nov. 15, 2019 Rise Set
Actual Time 6:42 AM MST 4:42 PM MST
Civil Twilight 6:13 AM MST 5:11 PM MST
Nautical Twilight 5:41 AM MST 5:43 PM MST
Astronomical Twilight 5:09 AM MST 6:15 PM MST
Moon 7:20 PM MST (11/15) 9:41 AM MST (11/15)
Length of Visible Light 10h 57m
Length of Day
9h 59m
Waning Gibbous, 89% of the Moon is Illuminated
Nov 15
Waning Gibbous
Nov 19
Last Quarter
Nov 26
New
Dec 3
First Quarter
Dec 11
Full

Hourly Weather History & Observations

Time (MST) Temp. Windchill Dew Point Humidity Pressure Visibility Wind Dir Wind Speed Gust Speed Precip Events Conditions
12:12 AM 35.1 °F 32.2 °F 27.9 °F 75% 30.19 in 10.0 mi South 3.5 mph - N/A   Clear
12:30 AM 32.7 °F 29.6 °F 27.5 °F 81% 30.19 in 10.0 mi WNW 3.5 mph - N/A   Clear
12:54 AM 36.1 °F - 28.8 °F 75% 30.18 in 10.0 mi Calm Calm - N/A   Clear
1:12 AM 36.7 °F 32.9 °F 28.8 °F 73% 30.18 in 10.0 mi SW 4.6 mph - N/A   Clear
1:30 AM 35.4 °F - 28.6 °F 76% 30.18 in 10.0 mi Calm Calm - N/A   Clear
1:54 AM 36.3 °F 33.7 °F 28.4 °F 73% 30.17 in 10.0 mi SW 3.5 mph - N/A   Clear
2:12 AM 35.8 °F 31.9 °F 28.2 °F 74% 30.18 in 10.0 mi WSW 4.6 mph - N/A   Clear
2:30 AM 35.8 °F 33.0 °F 28.0 °F 73% 30.17 in 10.0 mi WSW 3.5 mph - N/A   Clear
2:54 AM 34.3 °F 30.2 °F 27.7 °F 77% 30.17 in 10.0 mi SW 4.6 mph - N/A   Clear
3:30 AM 36.5 °F 30.3 °F 27.5 °F 70% 30.16 in 10.0 mi SW 8.1 mph - N/A   Clear
3:54 AM 38.3 °F 34.8 °F 27.9 °F 66% 30.16 in 10.0 mi WSW 4.6 mph - N/A   Clear
4:12 AM 36.0 °F 32.1 °F 27.9 °F 72% 30.17 in 10.0 mi WSW 4.6 mph - N/A   Clear
4:30 AM 38.7 °F - 27.5 °F 64% 30.17 in 10.0 mi Calm Calm - N/A   Clear
4:54 AM 37.0 °F 33.3 °F 27.1 °F 67% 30.17 in 10.0 mi SW 4.6 mph - N/A   Clear
5:12 AM 36.3 °F 33.7 °F 27.1 °F 69% 30.17 in 10.0 mi SSW 3.5 mph - N/A   Clear
5:30 AM 34.3 °F 29.2 °F 27.3 °F 76% 30.16 in 10.0 mi South 5.8 mph - N/A   Clear
5:54 AM 34.3 °F 27.0 °F 27.5 °F 76% 30.16 in 10.0 mi South 9.2 mph - N/A   Clear
6:52 AM 37.4 °F 30.3 °F 26.6 °F 65% 30.16 in 10.0 mi South 10.4 mph - N/A   Mostly Cloudy
7:50 AM 50.0 °F - 30.2 °F 47% 30.16 in 10.0 mi South 3.5 mph - N/A   Mostly Cloudy
8:47 AM 55.4 °F - 21.2 °F 26% 30.18 in 10.0 mi SSW 10.4 mph - N/A   Mostly Cloudy
9:52 AM 55.4 °F - 21.2 °F 26% 30.16 in 10.0 mi SSW 11.5 mph - N/A   Mostly Cloudy
10:50 AM 59.0 °F - 24.8 °F 27% 30.16 in 10.0 mi SSW 6.9 mph - N/A   Mostly Cloudy
11:50 AM 62.6 °F - 26.6 °F 26% 30.13 in 10.0 mi Calm Calm - N/A   Mostly Cloudy
12:57 PM 60.8 °F - 28.4 °F 29% 30.10 in 10.0 mi ENE 5.8 mph - N/A   Mostly Cloudy
1:54 PM 62.6 °F - 28.4 °F 27% 30.09 in 10.0 mi ESE 5.8 mph - N/A   Mostly Cloudy
3:47 PM 64.4 °F - 26.6 °F 24% 30.09 in 10.0 mi ESE 5.8 mph - N/A   Mostly Cloudy
4:51 PM 53.6 °F - 28.4 °F 38% 30.10 in 10.0 mi ESE 6.9 mph - N/A   Mostly Cloudy
5:54 PM 50.0 °F - 30.2 °F 47% 30.10 in 10.0 mi SSE 4.6 mph - N/A   Mostly Cloudy
6:58 PM 48.2 °F - 26.6 °F 43% 30.09 in 10.0 mi South 9.2 mph - N/A   Mostly Cloudy
7:58 PM 48.2 °F - 23.0 °F 37% 30.08 in 10.0 mi South 9.2 mph - N/A   Mostly Cloudy
8:12 PM 48.6 °F - 23.9 °F 38% 30.08 in 10.0 mi South 9.2 mph - N/A   Clear
8:30 PM 49.3 °F - 23.2 °F 36% 30.08 in 10.0 mi SSW 9.2 mph - N/A   Clear
8:52 PM 46.4 °F 42.9 °F 24.8 °F 43% 30.08 in 10.0 mi WSW 6.9 mph - N/A   Mostly Cloudy
8:54 PM 45.7 °F 41.0 °F 24.1 °F 43% 30.08 in 10.0 mi WSW 9.2 mph - N/A   Clear
9:12 PM 47.1 °F - 23.2 °F 39% 30.09 in 10.0 mi WSW 10.4 mph - N/A   Clear
9:30 PM 49.5 °F - 22.5 °F 35% 30.09 in 10.0 mi WSW 10.4 mph - N/A   Clear
9:54 PM 48.9 °F - 22.6 °F 36% 30.08 in 10.0 mi SW 9.2 mph - N/A   Clear
10:12 PM 48.9 °F - 24.1 °F 38% 30.08 in 10.0 mi SW 9.2 mph - N/A   Clear
10:30 PM 49.5 °F - 26.2 °F 40% 30.07 in 10.0 mi SW 10.4 mph - N/A   Clear
10:54 PM 49.3 °F - 29.7 °F 47% 30.08 in 10.0 mi SW 9.2 mph - N/A   Clear
11:12 PM 46.6 °F - 29.3 °F 51% 30.07 in 10.0 mi WSW 10.4 mph - N/A   Clear
11:54 PM 45.0 °F 41.8 °F 27.5 °F 50% 30.07 in 10.0 mi WSW 5.8 mph - N/A   Clear